TimeMST,TemperatureF,Dew PointF,Humidity,Sea Level PressureIn,VisibilityMPH,Wind Direction,Wind SpeedMPH,Gust SpeedMPH,PrecipitationIn,Events,Conditions,WindDirDegrees,DateUTC
12:15 AM,43.7,21.7,42,30.08,10.0,WNW,17.3,-,N/A,,Clear,290,2014-01-25 07:15:00
12:35 AM,43.5,21.4,41,30.08,10.0,WNW,12.7,-,N/A,,Clear,290,2014-01-25 07:35:00
12:55 AM,43.7,21.2,41,30.08,10.0,WNW,16.1,21.9,N/A,,Clear,290,2014-01-25 07:55:00
1:15 AM,44.8,20.3,38,30.09,10.0,WNW,19.6,24.2,N/A,,Clear,300,2014-01-25 08:15:00
1:35 AM,44.6,20.8,39,30.08,10.0,WNW,16.1,23.0,N/A,,Clear,300,2014-01-25 08:35:00
1:55 AM,44.6,21.2,39,30.08,10.0,WNW,17.3,-,N/A,,Clear,290,2014-01-25 08:55:00
2:15 AM,45.9,20.3,36,30.09,10.0,WNW,16.1,23.0,N/A,,Clear,290,2014-01-25 09:15:00
2:35 AM,45.1,21.0,38,30.08,10.0,West,12.7,23.0,N/A,,Clear,270,2014-01-25 09:35:00
2:55 AM,36.7,24.3,61,30.09,10.0,WSW,10.4,-,N/A,,Clear,250,2014-01-25 09:55:00
3:15 AM,36.7,24.1,60,30.08,10.0,West,10.4,-,N/A,,Clear,280,2014-01-25 10:15:00
3:35 AM,42.8,20.7,41,30.09,10.0,West,15.0,-,N/A,,Clear,280,2014-01-25 10:35:00
3:55 AM,43.7,19.8,38,30.09,10.0,WNW,15.0,23.0,N/A,,Clear,290,2014-01-25 10:55:00
4:15 AM,43.7,19.4,38,30.09,10.0,WNW,16.1,21.9,N/A,,Clear,290,2014-01-25 11:15:00
4:35 AM,43.2,19.8,39,30.08,10.0,WNW,15.0,-,N/A,,Clear,290,2014-01-25 11:35:00
4:55 AM,43.7,19.4,38,30.08,10.0,WNW,16.1,21.9,N/A,,Clear,300,2014-01-25 11:55:00
5:15 AM,44.1,18.5,36,30.09,10.0,WNW,16.1,23.0,N/A,,Clear,300,2014-01-25 12:15:00
5:35 AM,43.7,18.5,36,30.09,10.0,NW,16.1,20.7,N/A,,Clear,310,2014-01-25 12:35:00
5:55 AM,43.7,19.2,38,30.10,10.0,NW,13.8,20.7,N/A,,Clear,310,2014-01-25 12:55:00
6:15 AM,42.8,18.5,38,30.10,10.0,WNW,13.8,-,N/A,,Clear,300,2014-01-25 13:15:00
6:35 AM,40.1,19.6,44,30.10,10.0,West,8.1,-,N/A,,Clear,260,2014-01-25 13:35:00
6:55 AM,33.6,21.2,60,30.10,10.0,SW,8.1,-,N/A,,Clear,230,2014-01-25 13:55:00
7:15 AM,34.3,21.4,59,30.11,10.0,SW,9.2,-,N/A,,Clear,230,2014-01-25 14:15:00
7:35 AM,36.5,21.2,54,30.12,10.0,West,9.2,-,N/A,,Clear,270,2014-01-25 14:35:00
7:55 AM,38.3,21.6,51,30.11,10.0,West,10.4,-,N/A,,Clear,280,2014-01-25 14:55:00
8:15 AM,42.4,21.0,43,30.11,10.0,WNW,16.1,20.7,N/A,,Clear,300,2014-01-25 15:15:00
8:35 AM,45.5,19.4,35,30.12,10.0,WNW,13.8,21.9,N/A,,Clear,290,2014-01-25 15:35:00
8:55 AM,47.7,21.6,36,30.12,10.0,NW,16.1,21.9,N/A,,Clear,310,2014-01-25 15:55:00
9:15 AM,50.2,25.2,38,30.12,10.0,NW,20.7,29.9,N/A,,Clear,320,2014-01-25 16:15:00
9:35 AM,51.4,23.9,34,30.12,10.0,NW,17.3,25.3,N/A,,Clear,320,2014-01-25 16:35:00
9:55 AM,52.3,24.6,34,30.12,10.0,NW,24.2,32.2,N/A,,Clear,320,2014-01-25 16:55:00
10:15 AM,53.1,25.3,34,30.12,10.0,NNW,19.6,29.9,N/A,,Clear,330,2014-01-25 17:15:00
10:35 AM,54.3,25.5,33,30.13,10.0,NW,20.7,28.8,N/A,,Clear,320,2014-01-25 17:35:00
10:55 AM,55.0,26.1,33,30.12,10.0,NNW,20.7,26.5,N/A,,Clear,330,2014-01-25 17:55:00
11:15 AM,54.7,25.7,33,30.11,10.0,NNW,19.6,27.6,N/A,,Clear,330,2014-01-25 18:15:00
11:35 AM,56.5,25.7,31,30.09,10.0,NW,19.6,25.3,N/A,,Clear,310,2014-01-25 18:35:00
11:55 AM,56.5,25.3,30,30.07,10.0,NW,20.7,25.3,N/A,,Clear,310,2014-01-25 18:55:00
12:15 PM,57.4,25.3,29,30.05,10.0,NW,16.1,20.7,N/A,,Clear,310,2014-01-25 19:15:00
12:35 PM,58.5,25.5,28,30.04,10.0,WNW,17.3,23.0,N/A,,Clear,300,2014-01-25 19:35:00
12:55 PM,59.0,25.3,28,30.03,10.0,NW,13.8,-,N/A,,Clear,310,2014-01-25 19:55:00
1:15 PM,58.8,24.8,27,30.01,10.0,NW,12.7,24.2,N/A,,Clear,320,2014-01-25 20:15:00
1:35 PM,59.5,24.3,26,29.98,10.0,NW,9.2,16.1,N/A,,Clear,310,2014-01-25 20:35:00
1:55 PM,60.4,23.9,25,29.97,10.0,WNW,11.5,-,N/A,,Clear,300,2014-01-25 20:55:00
2:15 PM,60.6,23.7,24,29.97,10.0,WNW,10.4,16.1,N/A,,Clear,290,2014-01-25 21:15:00
2:35 PM,60.8,23.5,24,29.96,10.0,West,8.1,-,N/A,,Clear,270,2014-01-25 21:35:00
2:55 PM,61.5,23.0,23,29.95,10.0,WNW,10.4,-,N/A,,Clear,290,2014-01-25 21:55:00
3:15 PM,61.7,22.8,23,29.94,10.0,West,11.5,-,N/A,,Clear,280,2014-01-25 22:15:00
3:35 PM,61.0,23.2,24,29.93,10.0,WSW,6.9,-,N/A,,Clear,240,2014-01-25 22:35:00
3:55 PM,60.4,23.2,24,29.92,10.0,SW,10.4,-,N/A,,Clear,230,2014-01-25 22:55:00
4:15 PM,59.2,23.5,25,29.92,10.0,SW,10.4,-,N/A,,Clear,220,2014-01-25 23:15:00
4:35 PM,57.2,24.4,28,29.91,10.0,SW,8.1,-,N/A,,Clear,220,2014-01-25 23:35:00
4:55 PM,54.5,24.4,31,29.90,10.0,SW,9.2,-,N/A,,Clear,220,2014-01-25 23:55:00
5:15 PM,50.5,25.2,37,29.90,10.0,SW,9.2,-,N/A,,Clear,230,2014-01-26 00:15:00
5:35 PM,47.5,25.9,43,29.90,10.0,SW,8.1,-,N/A,,Clear,230,2014-01-26 00:35:00
5:55 PM,46.0,26.6,47,29.90,10.0,WSW,9.2,-,N/A,,Clear,240,2014-01-26 00:55:00
6:15 PM,43.7,27.1,52,29.89,10.0,WSW,9.2,-,N/A,,Clear,240,2014-01-26 01:15:00
6:35 PM,42.4,27.3,55,29.89,10.0,West,9.2,-,N/A,,Clear,260,2014-01-26 01:35:00
6:55 PM,43.9,27.1,52,29.89,10.0,WSW,10.4,-,N/A,,Clear,240,2014-01-26 01:55:00
7:15 PM,42.1,27.3,56,29.89,10.0,West,9.2,-,N/A,,Clear,260,2014-01-26 02:15:00
8:35 PM,36.5,27.1,69,29.88,10.0,North,-9999.0,-,N/A,,Clear,0,2014-01-26 03:35:00
8:55 PM,35.4,26.8,71,29.87,10.0,North,-9999.0,-,N/A,,Clear,0,2014-01-26 03:55:00
9:15 PM,34.5,26.6,73,29.87,10.0,West,10.4,-,N/A,,Clear,260,2014-01-26 04:15:00
9:35 PM,32.9,26.2,76,29.87,10.0,West,9.2,-,N/A,,Clear,270,2014-01-26 04:35:00
9:55 PM,32.4,26.1,78,29.87,10.0,West,10.4,-,N/A,,Clear,280,2014-01-26 04:55:00
10:15 PM,32.7,25.7,75,29.86,10.0,West,8.1,-,N/A,,Clear,270,2014-01-26 05:15:00
10:35 PM,32.0,25.3,76,29.87,10.0,West,9.2,-,N/A,,Clear,260,2014-01-26 05:35:00
10:55 PM,31.5,25.3,78,29.87,10.0,WSW,10.4,-,N/A,,Clear,250,2014-01-26 05:55:00
11:15 PM,30.6,25.2,80,29.87,10.0,WSW,6.9,-,N/A,,Clear,250,2014-01-26 06:15:00
11:35 PM,30.9,25.3,80,29.86,10.0,West,10.4,-,N/A,,Clear,260,2014-01-26 06:35:00
11:55 PM,32.0,25.7,78,29.86,10.0,West,8.1,-,N/A,,Clear,260,2014-01-26 06:55:00